Find SkySat C12

NORAD ID: 43797 Int'l Des: 2018-099 Owner: PLABST Country: US operational
LEOCIRCULARRETROGRADESSO

Live Position

Loading 3D Globe...

About SkySat C12

Description loading...

Upcoming Passes

Passes for default location (London). Set your location on the main map for personalized predictions.

Altitude History

Loading altitude history...

Two-Line Element Set

1 43797U 18099AR 26106.93889141 .00010548 00000-0 21070-3 0 9996
2 43797 96.9317 132.7108 0004759 44.6396 315.5238 15.46973734412380
Epoch: Apr 16, 2026 • Age: 4 hours

Current Status

Altitude 454.5 km
Velocity 7.64 km/s
Sub-Earth Point -74.97°S, 88.51°W
Launch Date Dec 3, 2018
Age 7.3 years
Type earth observation

Technical Details

Classification Payload
Mass 110.00 kg
Dry Mass 110.00 kg
Total Mass 110.00 kg
Length 1.20 m
Diameter 0.50 m
Span 0.50 m
Shape Box
Manufacturer SSLMAX
Bus Type SkySat-Gen2
Phase Status In Orbit
Owner/State PLABST/US

Most Searched